When you browse on this site, cookies collect data to enhance your experience and personalize the content and advertising you see.
Visit our Privacy Policy to learn more. By continuing to use the site, you agree to this use of cookies and data.
  • In Österreich
  • Länderverzeichnis
  • Für 7 Tage
  • Wassertemperatur
  • Wetterkarte
  • News
  • Widgets
  • user-avatar
    Anmelden

    Stündliche Wetter Mamuty

    Heute, 3 Juni, Mittwoch

    Zeit Temperatur Niederschläge Wind Luftdruck Luftfeuchtigkeit
    00:00 +9°C° 0.2 mm 3 m/S 742 mmHg 90%
    01:00 +9°C° 0.2 mm 3 m/S 742 mmHg 92%
    02:00 +9°C° 0.2 mm 3 m/S 742 mmHg 94%
    03:00 +9°C° 0 mm 3 m/S 742 mmHg 94%
    04:00 +9°C° 0 mm 3 m/S 742 mmHg 95%
    05:00 +9°C° 0 mm 3 m/S 741 mmHg 96%
    06:00 +9°C° 0 mm 3 m/S 741 mmHg 94%
    07:00 +10°C° 0 mm 3 m/S 741 mmHg 93%
    08:00 +11°C° 0 mm 3 m/S 742 mmHg 91%
    09:00 +11°C° 0.1 mm 3 m/S 741 mmHg 88%
    10:00 +12°C° 0.1 mm 3 m/S 741 mmHg 85%
    11:00 +13°C° 0.1 mm 3 m/S 741 mmHg 82%
    12:00 +14°C° 0.1 mm 3 m/S 741 mmHg 80%
    13:00 +14°C° 0.1 mm 3 m/S 741 mmHg 77%
    14:00 +16°C° 0.1 mm 2 m/S 741 mmHg 75%
    15:00 +16°C° 0.1 mm 2 m/S 741 mmHg 74%
    16:00 +17°C° 0.1 mm 2 m/S 740 mmHg 73%
    17:00 +17°C° 0.1 mm 2 m/S 740 mmHg 72%
    18:00 +15°C° 0.1 mm 2 m/S 740 mmHg 79%
    19:00 +14°C° 0.1 mm 2 m/S 740 mmHg 87%
    20:00 +12°C° 0.1 mm 2 m/S 740 mmHg 94%
    21:00 +12°C° 0 mm 2 m/S 740 mmHg 95%
    22:00 +10°C° 0 mm 2 m/S 739 mmHg 96%
    23:00 +10°C° 0 mm 1 m/S 739 mmHg 97%

    Morgen, 4 Juni, Donnerstag

    Zeit Temperatur Niederschläge Wind Luftdruck Luftfeuchtigkeit
    00:00 +9°C° 0 mm 1 m/S 739 mmHg 97%
    01:00 +9°C° 0 mm 1 m/S 739 mmHg 97%
    02:00 +9°C° 0 mm 1 m/S 739 mmHg 96%
    03:00 +9°C° 0 mm 1 m/S 739 mmHg 96%
    04:00 +10°C° 0 mm 1 m/S 739 mmHg 95%
    05:00 +10°C° 0 mm 1 m/S 738 mmHg 94%
    06:00 +12°C° 0 mm 1 m/S 738 mmHg 87%
    07:00 +14°C° 0 mm 1 m/S 738 mmHg 79%
    08:00 +16°C° 0 mm 1 m/S 738 mmHg 72%
    09:00 +17°C° 0 mm 2 m/S 738 mmHg 67%
    10:00 +18°C° 0 mm 3 m/S 738 mmHg 62%
    11:00 +19°C° 0 mm 3 m/S 738 mmHg 58%
    12:00 +18°C° 0.5 mm 4 m/S 738 mmHg 64%
    13:00 +17°C° 0.5 mm 4 m/S 738 mmHg 71%
    14:00 +17°C° 0.5 mm 4 m/S 738 mmHg 78%
    15:00 +15°C° 0.4 mm 4 m/S 738 mmHg 81%
    16:00 +14°C° 0.4 mm 3 m/S 738 mmHg 85%
    17:00 +14°C° 0.4 mm 3 m/S 737 mmHg 89%
    18:00 +13°C° 0.3 mm 3 m/S 737 mmHg 91%
    19:00 +13°C° 0.3 mm 2 m/S 737 mmHg 93%
    20:00 +13°C° 0.3 mm 2 m/S 737 mmHg 94%
    21:00 +12°C° 0 mm 2 m/S 737 mmHg 95%
    22:00 +10°C° 0 mm 2 m/S 737 mmHg 96%
    23:00 +9°C° 0 mm 2 m/S 737 mmHg 96%

    übermorgen, 5 Juni, Freitag

    Zeit Temperatur Niederschläge Wind Luftdruck Luftfeuchtigkeit
    00:00 +9°C° 0 mm 2 m/S 737 mmHg 97%
    01:00 +9°C° 0 mm 2 m/S 738 mmHg 97%
    02:00 +9°C° 0 mm 2 m/S 738 mmHg 97%
    03:00 +9°C° 0 mm 2 m/S 738 mmHg 97%
    04:00 +9°C° 0 mm 2 m/S 738 mmHg 97%
    05:00 +9°C° 0 mm 2 m/S 737 mmHg 97%
    06:00 +10°C° 0 mm 3 m/S 738 mmHg 93%
    07:00 +12°C° 0 mm 3 m/S 738 mmHg 89%
    08:00 +13°C° 0 mm 3 m/S 738 mmHg 85%
    09:00 +16°C° 0.1 mm 3 m/S 738 mmHg 76%
    10:00 +18°C° 0.1 mm 3 m/S 738 mmHg 67%
    11:00 +19°C° 0.1 mm 3 m/S 738 mmHg 58%
    12:00 +20°C° 0 mm 3 m/S 738 mmHg 56%
    13:00 +20°C° 0 mm 3 m/S 738 mmHg 54%
    14:00 +21°C° 0 mm 3 m/S 738 mmHg 52%
    15:00 +21°C° 0 mm 3 m/S 738 mmHg 55%
    16:00 +21°C° 0 mm 3 m/S 738 mmHg 58%
    17:00 +20°C° 0 mm 3 m/S 738 mmHg 61%
    18:00 +19°C° 0 mm 3 m/S 738 mmHg 70%
    19:00 +17°C° 0 mm 3 m/S 738 mmHg 80%
    20:00 +16°C° 0 mm 3 m/S 738 mmHg 89%
    21:00 +14°C° 0 mm 3 m/S 738 mmHg 92%
    22:00 +13°C° 0 mm 3 m/S 738 mmHg 95%
    23:00 +13°C° 0 mm 3 m/S 738 mmHg 98%

    6 Juni, Samstag

    Zeit Temperatur Niederschläge Wind Luftdruck Luftfeuchtigkeit
    00:00 +13°C° 0.4 mm 3 m/S 738 mmHg 98%
    01:00 +14°C° 0.4 mm 3 m/S 738 mmHg 97%
    02:00 +14°C° 0.4 mm 4 m/S 738 mmHg 97%
    03:00 +14°C° 0.1 mm 4 m/S 738 mmHg 97%
    04:00 +15°C° 0.1 mm 4 m/S 738 mmHg 97%
    05:00 +15°C° 0.1 mm 4 m/S 738 mmHg 97%
    06:00 +17°C° 0 mm 4 m/S 738 mmHg 94%
    07:00 +18°C° 0 mm 4 m/S 738 mmHg 91%
    08:00 +19°C° 0 mm 5 m/S 738 mmHg 87%
    09:00 +19°C° 0.5 mm 5 m/S 738 mmHg 89%
    10:00 +17°C° 0.5 mm 5 m/S 739 mmHg 91%
    11:00 +17°C° 0.5 mm 5 m/S 739 mmHg 93%
    12:00 +19°C° 0.5 mm 5 m/S 740 mmHg 84%
    13:00 +20°C° 0.5 mm 5 m/S 740 mmHg 75%
    14:00 +22°C° 0.5 mm 5 m/S 741 mmHg 66%
    15:00 +22°C° 0 mm 5 m/S 741 mmHg 63%
    16:00 +22°C° 0 mm 4 m/S 741 mmHg 60%
    17:00 +22°C° 0 mm 4 m/S 742 mmHg 56%
    18:00 +20°C° 0 mm 3 m/S 742 mmHg 65%
    19:00 +18°C° 0 mm 3 m/S 743 mmHg 75%
    20:00 +17°C° 0 mm 2 m/S 743 mmHg 84%
    21:00 +16°C° 0 mm 2 m/S 744 mmHg 88%
    22:00 +15°C° 0 mm 2 m/S 745 mmHg 91%
    23:00 +14°C° 0 mm 2 m/S 746 mmHg 95%

    7 Juni, Sonntag

    Zeit Temperatur Niederschläge Wind Luftdruck Luftfeuchtigkeit
    00:00 +13°C° 0 mm 1 m/S 746 mmHg 95%
    01:00 +13°C° 0 mm 1 m/S 746 mmHg 95%
    02:00 +12°C° 0 mm 1 m/S 747 mmHg 95%
    03:00 +12°C° 0 mm 1 m/S 747 mmHg 93%
    04:00 +13°C° 0 mm 1 m/S 747 mmHg 91%
    05:00 +13°C° 0 mm 1 m/S 748 mmHg 90%
    06:00 +15°C° 0 mm 1 m/S 748 mmHg 82%
    07:00 +17°C° 0 mm 2 m/S 748 mmHg 74%
    08:00 +19°C° 0 mm 2 m/S 748 mmHg 67%
    09:00 +20°C° 0 mm 2 m/S 749 mmHg 62%
    10:00 +23°C° 0 mm 2 m/S 749 mmHg 58%
    11:00 +24°C° 0 mm 3 m/S 749 mmHg 54%
    12:00 +25°C° 0 mm 3 m/S 749 mmHg 54%
    13:00 +25°C° 0 mm 3 m/S 748 mmHg 54%
    14:00 +25°C° 0 mm 3 m/S 748 mmHg 54%
    15:00 +25°C° 0 mm 3 m/S 748 mmHg 57%
    16:00 +25°C° 0 mm 3 m/S 748 mmHg 60%
    17:00 +25°C° 0 mm 3 m/S 747 mmHg 63%
    18:00 +22°C° 0.2 mm 3 m/S 747 mmHg 70%
    19:00 +21°C° 0.2 mm 2 m/S 747 mmHg 78%
    20:00 +19°C° 0.2 mm 2 m/S 747 mmHg 86%
    21:00 +19°C° 0.7 mm 2 m/S 747 mmHg 89%
    22:00 +18°C° 0.7 mm 2 m/S 747 mmHg 92%
    23:00 +18°C° 0.7 mm 3 m/S 747 mmHg 95%

    8 Juni, Montag

    Zeit Temperatur Niederschläge Wind Luftdruck Luftfeuchtigkeit
    00:00 +18°C° 0.2 mm 3 m/S 746 mmHg 94%
    01:00 +17°C° 0.2 mm 3 m/S 746 mmHg 94%
    02:00 +17°C° 0.2 mm 3 m/S 746 mmHg 93%
    03:00 +17°C° 0.2 mm 3 m/S 746 mmHg 94%
    04:00 +17°C° 0.2 mm 3 m/S 745 mmHg 95%
    05:00 +17°C° 0.2 mm 3 m/S 745 mmHg 95%
    06:00 +18°C° 0.6 mm 4 m/S 745 mmHg 94%
    07:00 +19°C° 0.6 mm 4 m/S 745 mmHg 92%
    08:00 +20°C° 0.6 mm 5 m/S 745 mmHg 91%
    09:00 +21°C° 0.1 mm 5 m/S 745 mmHg 86%
    10:00 +22°C° 0.1 mm 4 m/S 746 mmHg 81%
    11:00 +23°C° 0.1 mm 4 m/S 746 mmHg 76%
    12:00 +25°C° 1 mm 4 m/S 746 mmHg 76%
    13:00 +25°C° 1 mm 4 m/S 745 mmHg 77%
    14:00 +25°C° 1 mm 4 m/S 745 mmHg 78%
    15:00 +25°C° 0.3 mm 4 m/S 745 mmHg 77%
    16:00 +25°C° 0.3 mm 4 m/S 745 mmHg 76%
    17:00 +25°C° 0.3 mm 3 m/S 745 mmHg 75%
    18:00 +24°C° 0.4 mm 3 m/S 745 mmHg 80%
    19:00 +22°C° 0.4 mm 3 m/S 745 mmHg 84%
    20:00 +21°C° 0.4 mm 2 m/S 745 mmHg 89%
    21:00 +20°C° 0.1 mm 2 m/S 746 mmHg 91%
    22:00 +19°C° 0.1 mm 2 m/S 746 mmHg 93%
    23:00 +19°C° 0.1 mm 2 m/S 746 mmHg 95%
    Mehr zeigen